owner,sensor,date,latitude,longitude,vertical_datum,wind_speed,wind_to_direction,wind_speed_of_gust,qcFlag 
TCOON,ioos:station:TCOON:068:1,2014-12-01T00:00:00Z,27.2970,-97.4049,0.0,5.4,136.0,6.6,'11111222,11111222,11111222' 
TCOON,ioos:station:TCOON:068:1,2014-12-01T00:06:00Z,27.2970,-97.4049,0.0,5.3,135.0,6.4,'11111222,11111222,11111222' 
TCOON,ioos:station:TCOON:068:1,2014-12-01T00:12:00Z,27.2970,-97.4049,0.0,5.7,136.0,6.9,'11111222,11111222,11111222' 
TCOON,ioos:station:TCOON:068:1,2014-12-01T00:18:00Z,27.2970,-97.4049,0.0,5.4,137.0,7.2,'11111222,11111222,11111222' 
TCOON,ioos:station:TCOON:068:1,2014-12-01T00:24:00Z,27.2970,-97.4049,0.0,5.1,138.0,6.8,'11111222,11111222,11111222' 
TCOON,ioos:station:TCOON:068:1,2014-12-01T00:30:00Z,27.2970,-97.4049,0.0,5.4,139.0,6.5,'11111222,11111222,11111222' 
TCOON,ioos:station:TCOON:068:1,2014-12-01T00:36:00Z,27.2970,-97.4049,0.0,5.2,141.0,6.6,'11111222,11111222,11111222' 
TCOON,ioos:station:TCOON:068:1,2014-12-01T00:42:00Z,27.2970,-97.4049,0.0,5.7,143.0,6.5,'11111222,11111222,11111222' 
TCOON,ioos:station:TCOON:068:1,2014-12-01T00:48:00Z,27.2970,-97.4049,0.0,5.0,142.0,6.7,'11111222,11111222,11111222' 
TCOON,ioos:station:TCOON:068:1,2014-12-01T00:54:00Z,27.2970,-97.4049,0.0,5.0,147.0,6.3,'11111222,11111222,11111222' 
TCOON,ioos:station:TCOON:068:1,2014-12-01T01:00:00Z,27.2970,-97.4049,0.0,5.4,146.0,6.2,'11111222,11111222,11111222' 
TCOON,ioos:station:TCOON:068:1,2014-12-01T01:06:00Z,27.2970,-97.4049,0.0,4.9,144.0,6.5,'11111222,11111222,11111222' 
TCOON,ioos:station:TCOON:068:1,2014-12-01T01:12:00Z,27.2970,-97.4049,0.0,4.6,144.0,5.8,'11111222,11111222,11111222' 
TCOON,ioos:station:TCOON:068:1,2014-12-01T01:18:00Z,27.2970,-97.4049,0.0,5.4,148.0,6.7,'11111222,11111222,11111222' 
TCOON,ioos:station:TCOON:068:1,2014-12-01T01:24:00Z,27.2970,-97.4049,0.0,5.5,147.0,6.4,'11111222,11111222,11111222' 
TCOON,ioos:station:TCOON:068:1,2014-12-01T01:30:00Z,27.2970,-97.4049,0.0,4.8,145.0,5.9,'11111222,11111222,11111222' 
TCOON,ioos:station:TCOON:068:1,2014-12-01T01:36:00Z,27.2970,-97.4049,0.0,5.0,146.0,6.1,'11111222,11111222,11111222' 
TCOON,ioos:station:TCOON:068:1,2014-12-01T01:42:00Z,27.2970,-97.4049,0.0,4.9,146.0,6.2,'11111222,11111222,11111222' 
TCOON,ioos:station:TCOON:068:1,2014-12-01T01:48:00Z,27.2970,-97.4049,0.0,4.9,143.0,6.4,'11111222,11111222,11111222' 
TCOON,ioos:station:TCOON:068:1,2014-12-01T01:54:00Z,27.2970,-97.4049,0.0,4.8,141.0,6.0,'11111222,11111222,11111222' 
TCOON,ioos:station:TCOON:068:1,2014-12-01T02:00:00Z,27.2970,-97.4049,0.0,4.9,140.0,6.1,'11111222,11111222,11111222' 
TCOON,ioos:station:TCOON:068:1,2014-12-01T02:06:00Z,27.2970,-97.4049,0.0,4.7,141.0,5.7,'11111222,11111222,11111222' 
TCOON,ioos:station:TCOON:068:1,2014-12-01T02:12:00Z,27.2970,-97.4049,0.0,4.9,142.0,5.9,'11111222,11111222,11111222' 
TCOON,ioos:station:TCOON:068:1,2014-12-01T02:18:00Z,27.2970,-97.4049,0.0,4.9,142.0,5.9,'1111122,1111122,1111122' 
TCOON,ioos:station:TCOON:068:1,2014-12-01T02:24:00Z,27.2970,-97.4049,0.0,5.0,143.0,5.9,'11111222,11111222,11111222' 
TCOON,ioos:station:TCOON:068:1,2014-12-01T02:30:00Z,27.2970,-97.4049,0.0,4.9,143.0,6.4,'11111222,11111222,11111222' 
TCOON,ioos:station:TCOON:068:1,2014-12-01T02:36:00Z,27.2970,-97.4049,0.0,4.9,143.0,6.4,'11111222,11111222,11111222' 
TCOON,ioos:station:TCOON:068:1,2014-12-01T02:42:00Z,27.2970,-97.4049,0.0,5.5,144.0,6.2,'11111222,11111222,11111222' 
TCOON,ioos:station:TCOON:068:1,2014-12-01T02:48:00Z,27.2970,-97.4049,0.0,5.1,139.0,6.1,'11111222,11111222,11111222' 
TCOON,ioos:station:TCOON:068:1,2014-12-01T02:54:00Z,27.2970,-97.4049,0.0,4.3,143.0,5.9,'11111222,11111222,11111222' 
TCOON,ioos:station:TCOON:068:1,2014-12-01T03:00:00Z,27.2970,-97.4049,0.0,4.7,145.0,6.1,'11111222,11111222,11111222' 
TCOON,ioos:station:TCOON:068:1,2014-12-01T03:06:00Z,27.2970,-97.4049,0.0,5.3,145.0,6.2,'11111222,11111222,11111222' 
TCOON,ioos:station:TCOON:068:1,2014-12-01T03:12:00Z,27.2970,-97.4049,0.0,5.3,145.0,6.2,'1111122,1111122,1111122' 
TCOON,ioos:station:TCOON:068:1,2014-12-01T03:18:00Z,27.2970,-97.4049,0.0,5.1,149.0,5.9,'11111222,11111222,11111222' 
TCOON,ioos:station:TCOON:068:1,2014-12-01T03:24:00Z,27.2970,-97.4049,0.0,4.5,150.0,5.7,'11111222,11111222,11111222' 
TCOON,ioos:station:TCOON:068:1,2014-12-01T03:30:00Z,27.2970,-97.4049,0.0,5.2,153.0,6.5,'11111222,11111222,11111222' 
TCOON,ioos:station:TCOON:068:1,2014-12-01T03:36:00Z,27.2970,-97.4049,0.0,4.6,151.0,6.0,'11111222,11111222,11111222' 
TCOON,ioos:station:TCOON:068:1,2014-12-01T03:42:00Z,27.2970,-97.4049,0.0,4.3,150.0,5.4,'11111222,11111222,11111222' 
TCOON,ioos:station:TCOON:068:1,2014-12-01T03:48:00Z,27.2970,-97.4049,0.0,4.3,153.0,5.7,'11111222,11111222,11111222' 
TCOON,ioos:station:TCOON:068:1,2014-12-01T03:54:00Z,27.2970,-97.4049,0.0,4.5,155.0,6.1,'11111222,11111222,11111222' 
TCOON,ioos:station:TCOON:068:1,2014-12-01T04:00:00Z,27.2970,-97.4049,0.0,4.4,156.0,5.7,'11111222,11111222,11111222' 
TCOON,ioos:station:TCOON:068:1,2014-12-01T04:06:00Z,27.2970,-97.4049,0.0,4.3,151.0,5.4,'11111222,11111222,11111222' 
TCOON,ioos:station:TCOON:068:1,2014-12-01T04:12:00Z,27.2970,-97.4049,0.0,4.7,158.0,5.7,'11111222,11111222,11111222' 
TCOON,ioos:station:TCOON:068:1,2014-12-01T04:18:00Z,27.2970,-97.4049,0.0,4.7,158.0,5.7,'1111122,1111122,1111122' 
TCOON,ioos:station:TCOON:068:1,2014-12-01T04:24:00Z,27.2970,-97.4049,0.0,4.5,157.0,6.1,'11111222,11111222,11111222' 
TCOON,ioos:station:TCOON:068:1,2014-12-01T04:30:00Z,27.2970,-97.4049,0.0,4.8,156.0,5.8,'11111222,11111222,11111222' 
TCOON,ioos:station:TCOON:068:1,2014-12-01T04:36:00Z,27.2970,-97.4049,0.0,3.7,152.0,5.4,'11111222,11111222,11111222' 
TCOON,ioos:station:TCOON:068:1,2014-12-01T04:42:00Z,27.2970,-97.4049,0.0,4.8,156.0,5.8,'11111222,11111222,11111222' 
TCOON,ioos:station:TCOON:068:1,2014-12-01T04:48:00Z,27.2970,-97.4049,0.0,3.3,152.0,5.2,'11111222,11111222,11111222' 
TCOON,ioos:station:TCOON:068:1,2014-12-01T04:54:00Z,27.2970,-97.4049,0.0,4.1,155.0,4.9,'11111222,11111222,11111222' 
TCOON,ioos:station:TCOON:068:1,2014-12-01T05:00:00Z,27.2970,-97.4049,0.0,3.8,154.0,4.7,'11111222,11111222,11111222' 
TCOON,ioos:station:TCOON:068:1,2014-12-01T05:06:00Z,27.2970,-97.4049,0.0,3.9,148.0,4.7,'11111222,11111222,11111222' 
TCOON,ioos:station:TCOON:068:1,2014-12-01T05:12:00Z,27.2970,-97.4049,0.0,3.9,148.0,4.7,'1111122,1111122,1111122' 
TCOON,ioos:station:TCOON:068:1,2014-12-01T05:18:00Z,27.2970,-97.4049,0.0,4.2,152.0,4.9,'11111222,11111222,11111222' 
TCOON,ioos:station:TCOON:068:1,2014-12-01T05:24:00Z,27.2970,-97.4049,0.0,4.8,159.0,5.6,'11111222,11111222,11111222' 
TCOON,ioos:station:TCOON:068:1,2014-12-01T05:30:00Z,27.2970,-97.4049,0.0,4.6,157.0,5.4,'11111222,11111222,11111222' 
TCOON,ioos:station:TCOON:068:1,2014-12-01T05:36:00Z,27.2970,-97.4049,0.0,4.6,156.0,5.5,'11111222,11111222,11111222' 
TCOON,ioos:station:TCOON:068:1,2014-12-01T05:42:00Z,27.2970,-97.4049,0.0,4.0,156.0,5.3,'11111222,11111222,11111222' 
TCOON,ioos:station:TCOON:068:1,2014-12-01T05:48:00Z,27.2970,-97.4049,0.0,3.7,152.0,4.9,'11111222,11111222,11111222' 
TCOON,ioos:station:TCOON:068:1,2014-12-01T05:54:00Z,27.2970,-97.4049,0.0,3.6,151.0,4.6,'11111222,11111222,11111222' 
TCOON,ioos:station:TCOON:068:1,2014-12-01T06:00:00Z,27.2970,-97.4049,0.0,3.5,148.0,4.5,'11111222,11111222,11111222' 
TCOON,ioos:station:TCOON:068:1,2014-12-01T06:06:00Z,27.2970,-97.4049,0.0,3.4,146.0,4.1,'11111222,11111222,11111222' 
TCOON,ioos:station:TCOON:068:1,2014-12-01T06:12:00Z,27.2970,-97.4049,0.0,3.4,151.0,4.0,'11111222,11111222,11111222' 
TCOON,ioos:station:TCOON:068:1,2014-12-01T06:18:00Z,27.2970,-97.4049,0.0,3.4,151.0,4.0,'1111122,1111122,1111122' 
TCOON,ioos:station:TCOON:068:1,2014-12-01T06:24:00Z,27.2970,-97.4049,0.0,3.7,150.0,4.7,'11111222,11111222,11111222' 
TCOON,ioos:station:TCOON:068:1,2014-12-01T06:30:00Z,27.2970,-97.4049,0.0,3.8,150.0,4.5,'11111222,11111222,11111222' 
TCOON,ioos:station:TCOON:068:1,2014-12-01T06:36:00Z,27.2970,-97.4049,0.0,3.6,147.0,4.3,'11111222,11111222,11111222' 
TCOON,ioos:station:TCOON:068:1,2014-12-01T06:42:00Z,27.2970,-97.4049,0.0,4.0,148.0,4.8,'11111222,11111222,11111222' 
TCOON,ioos:station:TCOON:068:1,2014-12-01T06:48:00Z,27.2970,-97.4049,0.0,4.0,147.0,4.9,'11111222,11111222,11111222' 
TCOON,ioos:station:TCOON:068:1,2014-12-01T06:54:00Z,27.2970,-97.4049,0.0,3.9,148.0,4.8,'11111222,11111222,11111222' 
TCOON,ioos:station:TCOON:068:1,2014-12-01T07:00:00Z,27.2970,-97.4049,0.0,3.9,149.0,4.7,'11111222,11111222,11111222' 
TCOON,ioos:station:TCOON:068:1,2014-12-01T07:06:00Z,27.2970,-97.4049,0.0,3.7,153.0,4.5,'11111222,11111222,11111222' 
TCOON,ioos:station:TCOON:068:1,2014-12-01T07:12:00Z,27.2970,-97.4049,0.0,3.8,152.0,4.7,'11111222,11111222,11111222' 
TCOON,ioos:station:TCOON:068:1,2014-12-01T07:18:00Z,27.2970,-97.4049,0.0,3.8,152.0,4.7,'1111122,1111122,1111122' 
TCOON,ioos:station:TCOON:068:1,2014-12-01T07:24:00Z,27.2970,-97.4049,0.0,3.5,154.0,4.5,'11111222,11111222,11111222' 
TCOON,ioos:station:TCOON:068:1,2014-12-01T07:30:00Z,27.2970,-97.4049,0.0,3.2,153.0,4.5,'11111222,11111222,11111222' 
TCOON,ioos:station:TCOON:068:1,2014-12-01T07:36:00Z,27.2970,-97.4049,0.0,3.4,152.0,4.2,'11111222,11111222,11111222' 
TCOON,ioos:station:TCOON:068:1,2014-12-01T07:42:00Z,27.2970,-97.4049,0.0,3.1,151.0,4.2,'11111222,11111222,11111222' 
TCOON,ioos:station:TCOON:068:1,2014-12-01T07:48:00Z,27.2970,-97.4049,0.0,3.1,151.0,3.9,'11111222,11111222,11111222' 
TCOON,ioos:station:TCOON:068:1,2014-12-01T07:54:00Z,27.2970,-97.4049,0.0,2.6,154.0,3.9,'11111222,11111222,11111222' 
TCOON,ioos:station:TCOON:068:1,2014-12-01T08:00:00Z,27.2970,-97.4049,0.0,3.0,150.0,3.8,'11111222,11111222,11111222' 
TCOON,ioos:station:TCOON:068:1,2014-12-01T08:06:00Z,27.2970,-97.4049,0.0,3.2,145.0,3.9,'11111222,11111222,11111222' 
TCOON,ioos:station:TCOON:068:1,2014-12-01T08:12:00Z,27.2970,-97.4049,0.0,3.2,145.0,3.9,'1111122,1111122,1111122' 
TCOON,ioos:station:TCOON:068:1,2014-12-01T08:18:00Z,27.2970,-97.4049,0.0,2.9,154.0,3.8,'11111222,11111222,11111222' 
TCOON,ioos:station:TCOON:068:1,2014-12-01T08:24:00Z,27.2970,-97.4049,0.0,3.0,151.0,3.6,'11111222,11111222,11111222' 
TCOON,ioos:station:TCOON:068:1,2014-12-01T08:30:00Z,27.2970,-97.4049,0.0,2.9,152.0,3.6,'11111222,11111222,11111222' 
TCOON,ioos:station:TCOON:068:1,2014-12-01T08:36:00Z,27.2970,-97.4049,0.0,3.1,151.0,3.9,'11111222,11111222,11111222' 
TCOON,ioos:station:TCOON:068:1,2014-12-01T08:42:00Z,27.2970,-97.4049,0.0,3.5,152.0,4.0,'11111222,11111222,11111222' 
TCOON,ioos:station:TCOON:068:1,2014-12-01T08:48:00Z,27.2970,-97.4049,0.0,3.3,152.0,4.2,'11111222,11111222,11111222' 
TCOON,ioos:station:TCOON:068:1,2014-12-01T08:54:00Z,27.2970,-97.4049,0.0,2.9,151.0,3.8,'11111222,11111222,11111222' 
TCOON,ioos:station:TCOON:068:1,2014-12-01T09:00:00Z,27.2970,-97.4049,0.0,3.0,151.0,3.4,'11111222,11111222,11111222' 
TCOON,ioos:station:TCOON:068:1,2014-12-01T09:06:00Z,27.2970,-97.4049,0.0,2.7,143.0,3.3,'11111222,11111222,11111222' 
TCOON,ioos:station:TCOON:068:1,2014-12-01T09:12:00Z,27.2970,-97.4049,0.0,2.7,143.0,3.3,'1111122,1111122,1111122' 
TCOON,ioos:station:TCOON:068:1,2014-12-01T09:18:00Z,27.2970,-97.4049,0.0,2.9,134.0,3.7,'11111222,11111222,11111222' 
TCOON,ioos:station:TCOON:068:1,2014-12-01T09:24:00Z,27.2970,-97.4049,0.0,2.9,136.0,3.4,'11111222,11111222,11111222' 
TCOON,ioos:station:TCOON:068:1,2014-12-01T09:30:00Z,27.2970,-97.4049,0.0,3.0,129.0,3.7,'11111222,11111222,11111222' 
TCOON,ioos:station:TCOON:068:1,2014-12-01T09:36:00Z,27.2970,-97.4049,0.0,3.2,130.0,3.9,'11111222,11111222,11111222' 
TCOON,ioos:station:TCOON:068:1,2014-12-01T09:42:00Z,27.2970,-97.4049,0.0,3.2,129.0,3.9,'11111222,11111222,11111222' 
TCOON,ioos:station:TCOON:068:1,2014-12-01T09:48:00Z,27.2970,-97.4049,0.0,3.2,135.0,4.1,'11111222,11111222,11111222' 
TCOON,ioos:station:TCOON:068:1,2014-12-01T09:54:00Z,27.2970,-97.4049,0.0,3.1,133.0,3.9,'11111222,11111222,11111222' 
TCOON,ioos:station:TCOON:068:1,2014-12-01T10:00:00Z,27.2970,-97.4049,0.0,3.0,128.0,3.9,'11111222,11111222,11111222' 
TCOON,ioos:station:TCOON:068:1,2014-12-01T10:06:00Z,27.2970,-97.4049,0.0,3.3,119.0,3.9,'11111222,11111222,11111222' 
TCOON,ioos:station:TCOON:068:1,2014-12-01T10:12:00Z,27.2970,-97.4049,0.0,3.3,119.0,3.9,'1111122,1111122,1111122' 
TCOON,ioos:station:TCOON:068:1,2014-12-01T10:18:00Z,27.2970,-97.4049,0.0,3.1,119.0,3.8,'11111222,11111222,11111222' 
TCOON,ioos:station:TCOON:068:1,2014-12-01T10:24:00Z,27.2970,-97.4049,0.0,3.1,117.0,3.9,'11111222,11111222,11111222' 
TCOON,ioos:station:TCOON:068:1,2014-12-01T10:30:00Z,27.2970,-97.4049,0.0,3.3,116.0,3.9,'11111222,11111222,11111222' 
TCOON,ioos:station:TCOON:068:1,2014-12-01T10:36:00Z,27.2970,-97.4049,0.0,3.3,118.0,3.9,'11111222,11111222,11111222' 
TCOON,ioos:station:TCOON:068:1,2014-12-01T10:42:00Z,27.2970,-97.4049,0.0,3.0,114.0,3.5,'11111222,11111222,11111222' 
TCOON,ioos:station:TCOON:068:1,2014-12-01T10:48:00Z,27.2970,-97.4049,0.0,3.1,116.0,3.7,'11111222,11111222,11111222' 
TCOON,ioos:station:TCOON:068:1,2014-12-01T10:54:00Z,27.2970,-97.4049,0.0,3.0,117.0,3.6,'11111222,11111222,11111222' 
TCOON,ioos:station:TCOON:068:1,2014-12-01T11:00:00Z,27.2970,-97.4049,0.0,2.8,117.0,3.8,'11111222,11111222,11111222' 
TCOON,ioos:station:TCOON:068:1,2014-12-01T11:06:00Z,27.2970,-97.4049,0.0,3.0,118.0,3.4,'11111222,11111222,11111222' 
TCOON,ioos:station:TCOON:068:1,2014-12-01T11:12:00Z,27.2970,-97.4049,0.0,3.0,118.0,3.4,'1111122,1111122,1111122' 
TCOON,ioos:station:TCOON:068:1,2014-12-01T11:18:00Z,27.2970,-97.4049,0.0,3.1,115.0,3.5,'11111222,11111222,11111222' 
TCOON,ioos:station:TCOON:068:1,2014-12-01T11:24:00Z,27.2970,-97.4049,0.0,2.9,114.0,3.7,'11111222,11111222,11111222' 
TCOON,ioos:station:TCOON:068:1,2014-12-01T11:30:00Z,27.2970,-97.4049,0.0,2.9,111.0,3.4,'11111222,11111222,11111222' 
TCOON,ioos:station:TCOON:068:1,2014-12-01T11:36:00Z,27.2970,-97.4049,0.0,3.1,110.0,3.8,'11111222,11111222,11111222' 
TCOON,ioos:station:TCOON:068:1,2014-12-01T11:42:00Z,27.2970,-97.4049,0.0,3.1,110.0,3.6,'11111222,11111222,11111222' 
TCOON,ioos:station:TCOON:068:1,2014-12-01T11:48:00Z,27.2970,-97.4049,0.0,3.3,112.0,3.8,'11111222,11111222,11111222' 
TCOON,ioos:station:TCOON:068:1,2014-12-01T11:54:00Z,27.2970,-97.4049,0.0,3.6,111.0,4.0,'11111222,11111222,11111222' 
TCOON,ioos:station:TCOON:068:1,2014-12-01T12:00:00Z,27.2970,-97.4049,0.0,3.3,112.0,4.0,'11111222,11111222,11111222' 
TCOON,ioos:station:TCOON:068:1,2014-12-01T12:06:00Z,27.2970,-97.4049,0.0,2.8,110.0,3.5,'11111222,11111222,11111222' 
TCOON,ioos:station:TCOON:068:1,2014-12-01T12:12:00Z,27.2970,-97.4049,0.0,2.8,110.0,3.5,'1111122,1111122,1111122' 
TCOON,ioos:station:TCOON:068:1,2014-12-01T12:18:00Z,27.2970,-97.4049,0.0,2.2,112.0,2.7,'11111222,11111222,11111222' 
TCOON,ioos:station:TCOON:068:1,2014-12-01T12:24:00Z,27.2970,-97.4049,0.0,2.1,108.0,2.3,'11111222,11111222,11111222' 
TCOON,ioos:station:TCOON:068:1,2014-12-01T12:30:00Z,27.2970,-97.4049,0.0,2.2,110.0,2.5,'11111222,11111222,11111222' 
TCOON,ioos:station:TCOON:068:1,2014-12-01T12:36:00Z,27.2970,-97.4049,0.0,1.6,108.0,2.2,'11111222,11111222,11111222' 
TCOON,ioos:station:TCOON:068:1,2014-12-01T12:42:00Z,27.2970,-97.4049,0.0,1.6,106.0,1.9,'11111222,11111222,11111222' 
TCOON,ioos:station:TCOON:068:1,2014-12-01T12:48:00Z,27.2970,-97.4049,0.0,2.1,110.0,2.3,'11111222,11111222,11111222' 
TCOON,ioos:station:TCOON:068:1,2014-12-01T12:54:00Z,27.2970,-97.4049,0.0,2.1,112.0,2.4,'11111222,11111222,11111222' 
TCOON,ioos:station:TCOON:068:1,2014-12-01T13:00:00Z,27.2970,-97.4049,0.0,2.4,114.0,2.7,'11111222,11111222,11111222' 
TCOON,ioos:station:TCOON:068:1,2014-12-01T13:06:00Z,27.2970,-97.4049,0.0,2.2,116.0,2.7,'11111222,11111222,11111222' 
TCOON,ioos:station:TCOON:068:1,2014-12-01T13:12:00Z,27.2970,-97.4049,0.0,2.2,116.0,2.7,'1111122,1111122,1111122' 
TCOON,ioos:station:TCOON:068:1,2014-12-01T13:18:00Z,27.2970,-97.4049,0.0,1.8,125.0,2.4,'11111222,11111222,11111222' 
TCOON,ioos:station:TCOON:068:1,2014-12-01T13:24:00Z,27.2970,-97.4049,0.0,1.4,123.0,2.0,'11111222,11111222,11111222' 
TCOON,ioos:station:TCOON:068:1,2014-12-01T13:30:00Z,27.2970,-97.4049,0.0,1.4,117.0,1.7,'11111222,11111222,11111222' 
TCOON,ioos:station:TCOON:068:1,2014-12-01T13:36:00Z,27.2970,-97.4049,0.0,1.3,115.0,1.5,'11111222,11111222,11111222' 
TCOON,ioos:station:TCOON:068:1,2014-12-01T13:42:00Z,27.2970,-97.4049,0.0,1.1,112.0,1.4,'11111222,11111222,11111222' 
TCOON,ioos:station:TCOON:068:1,2014-12-01T13:48:00Z,27.2970,-97.4049,0.0,0.6,110.0,1.0,'11111222,11111222,11111222' 
TCOON,ioos:station:TCOON:068:1,2014-12-01T13:54:00Z,27.2970,-97.4049,0.0,0.8,70.0,0.9,'11111222,11111222,11111222' 
TCOON,ioos:station:TCOON:068:1,2014-12-01T14:00:00Z,27.2970,-97.4049,0.0,0.9,64.0,1.0,'11111222,11111222,11111222' 
TCOON,ioos:station:TCOON:068:1,2014-12-01T14:06:00Z,27.2970,-97.4049,0.0,0.7,51.0,1.0,'11111222,11111222,11111222' 
TCOON,ioos:station:TCOON:068:1,2014-12-01T14:12:00Z,27.2970,-97.4049,0.0,0.6,62.0,0.8,'11111222,11111222,11111222' 
TCOON,ioos:station:TCOON:068:1,2014-12-01T14:18:00Z,27.2970,-97.4049,0.0,0.4,85.0,0.8,'11111222,11111222,11111222' 
TCOON,ioos:station:TCOON:068:1,2014-12-01T14:24:00Z,27.2970,-97.4049,0.0,0.0,92.0,0.6,'11111222,11111222,11111222' 
TCOON,ioos:station:TCOON:068:1,2014-12-01T14:30:00Z,27.2970,-97.4049,0.0,0.8,141.0,1.1,'11111222,11111222,11111222' 
TCOON,ioos:station:TCOON:068:1,2014-12-01T14:36:00Z,27.2970,-97.4049,0.0,1.2,147.0,1.5,'11111222,11111222,11111222' 
TCOON,ioos:station:TCOON:068:1,2014-12-01T14:42:00Z,27.2970,-97.4049,0.0,1.5,143.0,1.7,'11111222,11111222,11111222' 
TCOON,ioos:station:TCOON:068:1,2014-12-01T14:48:00Z,27.2970,-97.4049,0.0,1.5,132.0,2.1,'11111222,11111222,11111222' 
TCOON,ioos:station:TCOON:068:1,2014-12-01T14:54:00Z,27.2970,-97.4049,0.0,1.0,124.0,1.5,'11111222,11111222,11111222' 
TCOON,ioos:station:TCOON:068:1,2014-12-01T15:00:00Z,27.2970,-97.4049,0.0,1.6,102.0,1.7,'11111222,11111222,11111222' 
TCOON,ioos:station:TCOON:068:1,2014-12-01T15:06:00Z,27.2970,-97.4049,0.0,2.4,95.0,2.5,'11111222,11111222,11111222' 
TCOON,ioos:station:TCOON:068:1,2014-12-01T15:12:00Z,27.2970,-97.4049,0.0,2.1,99.0,2.3,'11111222,11111222,11111222' 
TCOON,ioos:station:TCOON:068:1,2014-12-01T15:18:00Z,27.2970,-97.4049,0.0,1.8,94.0,2.2,'11111222,11111222,11111222' 
TCOON,ioos:station:TCOON:068:1,2014-12-01T15:24:00Z,27.2970,-97.4049,0.0,1.9,92.0,2.1,'11111222,11111222,11111222' 
TCOON,ioos:station:TCOON:068:1,2014-12-01T15:30:00Z,27.2970,-97.4049,0.0,1.5,94.0,2.3,'11111222,11111222,11111222' 
TCOON,ioos:station:TCOON:068:1,2014-12-01T15:36:00Z,27.2970,-97.4049,0.0,1.4,95.0,1.8,'11111222,11111222,11111222' 
TCOON,ioos:station:TCOON:068:1,2014-12-01T15:42:00Z,27.2970,-97.4049,0.0,1.6,87.0,1.8,'11111222,11111222,11111222' 
TCOON,ioos:station:TCOON:068:1,2014-12-01T15:48:00Z,27.2970,-97.4049,0.0,1.1,68.0,1.4,'11111222,11111222,11111222' 
TCOON,ioos:station:TCOON:068:1,2014-12-01T15:54:00Z,27.2970,-97.4049,0.0,0.9,95.0,1.2,'11111222,11111222,11111222' 
TCOON,ioos:station:TCOON:068:1,2014-12-01T16:00:00Z,27.2970,-97.4049,0.0,1.1,137.0,1.8,'11111222,11111222,11111222' 
TCOON,ioos:station:TCOON:068:1,2014-12-01T16:06:00Z,27.2970,-97.4049,0.0,1.5,107.0,1.8,'11111222,11111222,11111222' 
TCOON,ioos:station:TCOON:068:1,2014-12-01T16:12:00Z,27.2970,-97.4049,0.0,1.2,131.0,1.8,'11111222,11111222,11111222' 
TCOON,ioos:station:TCOON:068:1,2014-12-01T16:18:00Z,27.2970,-97.4049,0.0,1.5,116.0,1.9,'11111222,11111222,11111222' 
TCOON,ioos:station:TCOON:068:1,2014-12-01T16:24:00Z,27.2970,-97.4049,0.0,1.4,107.0,1.9,'11111222,11111222,11111222' 
TCOON,ioos:station:TCOON:068:1,2014-12-01T16:30:00Z,27.2970,-97.4049,0.0,1.2,90.0,1.5,'11111222,11111222,11111222' 
TCOON,ioos:station:TCOON:068:1,2014-12-01T16:36:00Z,27.2970,-97.4049,0.0,0.9,88.0,1.4,'11111222,11111222,11111222' 
TCOON,ioos:station:TCOON:068:1,2014-12-01T16:42:00Z,27.2970,-97.4049,0.0,0.9,99.0,1.6,'11111222,11111222,11111222' 
TCOON,ioos:station:TCOON:068:1,2014-12-01T16:48:00Z,27.2970,-97.4049,0.0,1.0,130.0,1.5,'11111222,11111222,11111222' 
TCOON,ioos:station:TCOON:068:1,2014-12-01T16:54:00Z,27.2970,-97.4049,0.0,1.1,145.0,1.5,'11111222,11111222,11111222' 
TCOON,ioos:station:TCOON:068:1,2014-12-01T17:00:00Z,27.2970,-97.4049,0.0,1.3,180.0,1.6,'11111222,11111222,11111222' 
TCOON,ioos:station:TCOON:068:1,2014-12-01T17:06:00Z,27.2970,-97.4049,0.0,1.1,172.0,1.8,'11111222,11111222,11111222' 
TCOON,ioos:station:TCOON:068:1,2014-12-01T17:12:00Z,27.2970,-97.4049,0.0,1.6,170.0,2.0,'11111222,11111222,11111222' 
TCOON,ioos:station:TCOON:068:1,2014-12-01T17:18:00Z,27.2970,-97.4049,0.0,1.7,140.0,2.2,'11111222,11111222,11111222' 
TCOON,ioos:station:TCOON:068:1,2014-12-01T17:24:00Z,27.2970,-97.4049,0.0,1.6,151.0,2.0,'11111222,11111222,11111222' 
TCOON,ioos:station:TCOON:068:1,2014-12-01T17:30:00Z,27.2970,-97.4049,0.0,2.1,141.0,2.7,'11111222,11111222,11111222' 
TCOON,ioos:station:TCOON:068:1,2014-12-01T17:36:00Z,27.2970,-97.4049,0.0,2.5,122.0,3.5,'11111222,11111222,11111222' 
TCOON,ioos:station:TCOON:068:1,2014-12-01T17:42:00Z,27.2970,-97.4049,0.0,3.0,132.0,3.6,'11111222,11111222,11111222' 
TCOON,ioos:station:TCOON:068:1,2014-12-01T17:48:00Z,27.2970,-97.4049,0.0,3.4,120.0,4.3,'11111222,11111222,11111222' 
TCOON,ioos:station:TCOON:068:1,2014-12-01T17:54:00Z,27.2970,-97.4049,0.0,3.4,122.0,4.2,'11111222,11111222,11111222' 
TCOON,ioos:station:TCOON:068:1,2014-12-01T18:00:00Z,27.2970,-97.4049,0.0,3.1,118.0,4.5,'11111222,11111222,11111222' 
TCOON,ioos:station:TCOON:068:1,2014-12-01T18:06:00Z,27.2970,-97.4049,0.0,3.4,125.0,4.4,'11111222,11111222,11111222' 
TCOON,ioos:station:TCOON:068:1,2014-12-01T18:12:00Z,27.2970,-97.4049,0.0,2.9,129.0,4.1,'11111222,11111222,11111222' 
TCOON,ioos:station:TCOON:068:1,2014-12-01T18:18:00Z,27.2970,-97.4049,0.0,2.9,127.0,4.8,'11111222,11111222,11111222' 
TCOON,ioos:station:TCOON:068:1,2014-12-01T18:24:00Z,27.2970,-97.4049,0.0,3.5,135.0,4.3,'11111222,11111222,11111222' 
TCOON,ioos:station:TCOON:068:1,2014-12-01T18:30:00Z,27.2970,-97.4049,0.0,3.6,141.0,4.4,'11111222,11111222,11111222' 
TCOON,ioos:station:TCOON:068:1,2014-12-01T18:36:00Z,27.2970,-97.4049,0.0,3.4,124.0,4.6,'11111222,11111222,11111222' 
TCOON,ioos:station:TCOON:068:1,2014-12-01T18:42:00Z,27.2970,-97.4049,0.0,3.7,116.0,4.7,'11111222,11111222,11111222' 
TCOON,ioos:station:TCOON:068:1,2014-12-01T18:48:00Z,27.2970,-97.4049,0.0,4.0,117.0,4.9,'11111222,11111222,11111222' 
TCOON,ioos:station:TCOON:068:1,2014-12-01T18:54:00Z,27.2970,-97.4049,0.0,3.9,119.0,4.8,'11111222,11111222,11111222' 
TCOON,ioos:station:TCOON:068:1,2014-12-01T19:00:00Z,27.2970,-97.4049,0.0,3.9,119.0,4.8,'1111122,1111122,1111122' 
TCOON,ioos:station:TCOON:068:1,2014-12-01T19:06:00Z,27.2970,-97.4049,0.0,3.2,125.0,4.3,'11111222,11111222,11111222' 
TCOON,ioos:station:TCOON:068:1,2014-12-01T19:12:00Z,27.2970,-97.4049,0.0,3.0,122.0,4.2,'11111222,11111222,11111222' 
TCOON,ioos:station:TCOON:068:1,2014-12-01T19:18:00Z,27.2970,-97.4049,0.0,3.0,122.0,4.2,'1111122,1111122,1111122' 
TCOON,ioos:station:TCOON:068:1,2014-12-01T19:24:00Z,27.2970,-97.4049,0.0,3.6,119.0,4.9,'11111222,11111222,11111222' 
TCOON,ioos:station:TCOON:068:1,2014-12-01T19:30:00Z,27.2970,-97.4049,0.0,3.5,121.0,4.9,'11111222,11111222,11111222' 
TCOON,ioos:station:TCOON:068:1,2014-12-01T19:36:00Z,27.2970,-97.4049,0.0,3.2,125.0,4.3,'11111222,11111222,11111222' 
TCOON,ioos:station:TCOON:068:1,2014-12-01T19:42:00Z,27.2970,-97.4049,0.0,3.6,124.0,4.7,'11111222,11111222,11111222' 
TCOON,ioos:station:TCOON:068:1,2014-12-01T19:48:00Z,27.2970,-97.4049,0.0,3.0,129.0,4.4,'11111222,11111222,11111222' 
TCOON,ioos:station:TCOON:068:1,2014-12-01T19:54:00Z,27.2970,-97.4049,0.0,3.3,136.0,4.0,'11111222,11111222,11111222' 
TCOON,ioos:station:TCOON:068:1,2014-12-01T20:00:00Z,27.2970,-97.4049,0.0,3.5,128.0,4.6,'11111222,11111222,11111222' 
TCOON,ioos:station:TCOON:068:1,2014-12-01T20:06:00Z,27.2970,-97.4049,0.0,4.4,117.0,5.4,'11111222,11111222,11111222' 
TCOON,ioos:station:TCOON:068:1,2014-12-01T20:12:00Z,27.2970,-97.4049,0.0,3.4,125.0,5.6,'11111222,11111222,11111222' 
TCOON,ioos:station:TCOON:068:1,2014-12-01T20:18:00Z,27.2970,-97.4049,0.0,3.4,125.0,5.6,'1111122,1111122,1111122' 